Temperature
14 15 15 15 18 19 20 20 20 20 20 18 18 19 20 20 20 19 15 15 15 15 15 15 15 15 15 15 15 15 15 16 16 16 16 16 15 15 15 15 15 15 14 14 14 14 14 14 14
14 14 14 16 19 20 20 20 19 19 18 16 17 17 18 18 16 15 14 15 15 14 14 15 15 15 15 15 15 15 15 15 15 15 15 15 15 15 15 15 15 14 14 14 14 14 14 14 14
14 14 15 18 18 20 20 19 19 17 16 16 17 16 17 16 14 14 14 14 14 14 14 14 15 15 15 15 15 15 15 15 15 15 15 15 15 15 15 15 14 14 14 14 14 14 14 14 14
13 14 15 17 18 18 18 18 17 17 16 15 16 17 15 13 13 13 14 14 14 14 14 14 14 15 15 14 15 15 15 15 15 15 15 14 14 14 14 14 14 14 14 14 14 14 14 14 14
13 15 17 17 17 17 17 16 16 17 17 15 16 17 15 13 13 13 14 14 14 14 14 14 14 14 14 14 14 14 14 14 14 14 14 14 14 14 14 14 14 14 14 14 14 14 14 14 14
13 15 17 17 17 16 16 14 15 16 16 15 15 16 15 13 13 13 13 13 13 13 13 13 14 14 14 14 14 14 14 14 14 14 14 14 14 14 14 14 14 14 14 13 13 13 13 13 13
14 15 16 17 16 16 15 14 15 15 15 14 14 15 14 12 12 13 13 12 12 13 13 13 13 13 14 14 14 14 14 14 14 14 14 14 14 14 14 14 14 14 13 13 13 13 13 13 13
12 15 15 15 15 15 14 13 13 13 14 12 12 14 14 12 12 12 12 12 12 12 12 13 13 13 13 13 13 14 14 14 14 13 13 14 14 14 14 13 13 13 13 13 13 13 13 13 13
11 14 14 14 14 14 12 12 11 10 11 11 11 11 11 11 11 11 12 12 12 12 12 12 12 12 13 13 13 13 13 13 13 13 13 13 13 13 13 13 13 13 13 13 13 12 12 12 12
12 13 13 13 13 13 12 12 11 11 12 11 11 10 10 10 11 11 11 11 11 11 12 12 12 12 12 12 12 12 12 12 13 12 12 12 12 13 12 13 13 13 12 12 12 12 12 12 11
11 12 11 11 10 10 11 10 10 11 12 12 11 10 10 9 10 10 10 10 10 11 11 11 12 12 12 12 12 12 12 12 12 12 12 12 12 12 12 12 12 12 12 12 12 12 11 11 11
10 10 9 9 9 9 10 10 10 10 10 9 9 9 9 9 9 9 9 9 10 10 10 11 11 11 11 11 11 11 11 11 11 12 12 12 12 11 11 12 12 12 12 11 11 11 11 11 11
10 9 8 8 8 8 8 9 9 9 8 8 8 8 8 8 9 9 9 9 9 10 10 10 11 11 11 11 11 11 11 11 11 11 11 11 11 11 11 11 11 11 11 11 11 11 11 11 11
9 9 8 8 8 8 9 9 9 9 8 8 8 8 8 8 8 8 8 9 9 9 9 10 10 10 10 10 10 10 11 11 11 11 11 11 11 11 11 11 11 11 11 11 11 11 10 10 10
8 9 10 9 9 8 9 10 10 8 8 8 8 8 8 7 7 8 8 8 9 9 9 9 10 10 10 10 10 10 10 10 10 10 10 10 10 10 10 10 11 11 11 11 11 10 10 10 10
9 10 10 10 9 8 9 10 10 8 8 8 8 7 7 7 7 7 7 8 8 8 9 9 9 9 10 10 9 9 10 10 10 10 10 10 10 10 10 10 10 10 10 10 10 10 10 10 10
10 10 10 10 9 9 9 10 10 8 8 8 7 7 7 7 7 7 7 7 7 8 8 9 9 9 9 9 9 9 9 9 9 9 10 10 9 9 9 10 10 10 10 10 10 10 10 9 9
10 10 10 9 9 9 9 9 9 8 8 8 7 7 7 7 7 7 7 7 7 7 7 8 8 8 8 8 8 8 8 9 9 9 9 9 9 9 9 9 9 9 9 10 9 9 9 9 9
9 9 9 9 8 8 8 9 9 8 8 8 7 7 7 7 6 6 7 7 7 7 7 7 8 8 8 7 8 8 8 8 8 9 9 8 8 8 8 9 9 9 9 9 9 9 9 9 9
8 8 8 8 7 8 8 8 8 8 8 7 7 7 7 6 6 6 6 6 6 6 7 7 7 7 7 7 7 7 7 7 8 8 8 8 8 8 8 8 8 8 8 8 9 9 8 8 8
7 8 8 7 7 7 7 9 9 8 8 7 7 7 6 6 6 6 6 6 6 6 6 6 6 7 7 6 7 6 6 7 7 7 7 8 8 8 8 7 8 8 8 8 8 8 8 8 8
7 7 6 6 7 8 7 9 10 9 8 8 8 7 6 6 5 5 5 5 5 5 6 6 6 6 6 6 6 6 6 6 6 7 7 7 7 7 7 7 7 7 8 8 8 8 8 8 7
6 6 6 6 6 6 7 7 10 8 8 9 8 7 6 6 5 5 5 5 5 5 5 5 5 5 5 5 5 5 6 6 6 6 6 6 7 7 7 7 7 7 7 7 7 7 7 7 7
5 5 6 6 6 6 7 7 10 9 8 8 8 7 6 5 5 4 5 5 5 5 5 5 5 5 5 5 5 5 5 5 6 6 6 6 6 6 6 6 6 6 7 7 7 7 7 7 7
5 6 8 8 8 8 7 7 9 8 7 7 7 6 5 5 4 4 4 4 4 4 4 4 4 4 4 4 4 5 5 5 5 5 5 5 5 6 6 6 6 6 6 6 6 6 7 7 7
5 6 7 8 9 9 7 7 9 7 6 6 5 5 5 4 4 4 3 3 3 3 4 4 4 4 4 4 4 4 4 4 4 5 5 5 5 5 5 5 6 6 6 6 6 6 6 6 6
5 5 5 6 5 6 8 8 8 7 6 6 5 5 4 4 3 3 3 3 3 3 3 3 3 3 3 4 4 4 4 4 4 4 4 4 4 5 5 5 5 5 5 6 6 6 6 5 5
4 4 5 5 6 8 9 9 9 7 7 6 5 5 4 3 3 3 2 2 2 3 3 3 3 3 3 3 3 3 3 3 4 3 4 4 4 4 4 5 5 5 5 5 5 5 5 5 5
3 3 4 5 5 7 8 10 8 7 6 5 5 4 3 3 3 2 2 2 2 3 3 3 3 3 3 3 3 3 3 3 3 3 3 3 4 4 4 4 4 4 4 4 4 5 5 5 4
3 4 4 5 5 5 6 8 7 6 5 4 4 3 3 2 2 2 2 2 2 2 2 2 3 3 3 3 3 3 3 3 3 3 3 3 3 3 3 4 4 4 4 4 4 4 4 4 4
Wind_Speed
6 3 2 2 5 6 12 9 7 6 5 4 3 4 4 4 3 1 3 2 1 3 4 6 5 4 5 6 5 6 6 7 8 9 9 9 9 9 10 9 9 9 9 9 9 9 8 8 8
4 2 2 3 7 11 11 10 9 7 4 2 3 4 4 3 1 1 1 2 1 2 4 5 4 4 4 5 5 5 6 7 8 8 9 9 9 9 9 9 9 8 9 9 9 8 8 8 7
1 1 3 4 8 12 11 7 6 4 4 3 3 3 3 2 1 0 2 1 1 2 3 4 4 4 4 4 5 5 5 6 7 8 8 8 9 9 9 9 9 8 9 9 8 8 8 7 7
1 2 3 6 11 10 7 4 3 4 4 3 3 3 2 0 1 1 1 0 1 2 3 4 4 3 4 4 4 5 5 5 6 7 7 7 8 9 9 9 9 8 8 8 8 7 7 7 6
1 3 5 8 11 8 5 3 3 5 5 3 4 4 3 2 2 2 1 1 1 2 2 4 4 4 3 4 4 5 5 5 5 6 7 7 7 7 9 9 9 9 8 8 8 7 7 7 6
3 3 7 10 10 7 6 5 5 6 5 3 3 5 3 1 2 2 2 0 0 1 1 2 3 3 3 3 3 5 5 5 5 5 6 6 7 6 8 9 9 9 8 8 8 7 7 7 6
3 4 7 8 7 7 5 4 6 6 6 4 3 4 3 1 2 3 2 1 0 1 1 1 2 2 3 3 3 4 4 5 5 4 5 5 6 7 7 8 9 9 8 8 8 7 7 7 6
1 2 5 6 7 6 3 3 3 5 4 2 3 5 4 3 4 3 2 1 1 1 1 1 0 1 2 3 3 4 4 5 4 4 4 5 6 7 7 8 8 8 8 8 8 7 7 7 6
1 3 6 7 6 4 2 2 1 2 3 3 3 4 5 4 3 2 1 1 2 2 2 2 1 0 1 2 3 4 5 5 5 4 4 5 5 6 6 6 7 8 8 8 8 8 7 6 6
2 4 5 3 3 3 2 2 2 3 3 4 4 4 4 2 2 2 1 2 2 3 3 2 2 1 1 1 2 4 4 5 5 4 4 5 4 4 4 5 6 7 8 8 8 8 8 6 5
1 3 2 2 2 2 3 3 3 5 6 6 5 5 4 3 3 3 2 2 3 3 3 3 3 2 1 1 1 2 2 3 4 4 4 4 4 4 3 4 5 6 7 7 7 8 6 5 4
2 1 2 2 2 3 4 4 4 6 7 6 6 5 5 5 4 4 3 3 3 3 3 3 3 2 2 1 1 2 2 2 2 3 4 3 3 3 3 3 4 5 5 5 5 5 5 5 5
2 2 2 3 3 3 4 6 7 8 7 6 4 3 4 5 5 5 5 4 4 4 4 4 3 3 2 1 1 2 2 2 3 4 4 4 3 4 3 3 4 4 5 5 4 4 5 5 5
1 1 3 5 5 4 4 6 6 7 5 3 3 3 4 5 6 6 6 5 4 5 5 5 4 3 2 2 2 2 2 3 3 4 5 5 4 3 4 4 4 4 5 5 5 5 5 4 5
1 1 3 3 3 2 4 5 6 5 4 4 4 4 5 5 5 6 6 6 5 6 6 5 5 4 3 2 3 3 3 3 3 3 5 5 5 4 4 4 4 4 5 5 5 5 5 4 5
2 2 3 1 2 3 4 7 4 3 4 4 5 5 5 6 6 6 7 6 6 6 6 5 5 4 4 3 3 3 3 3 3 3 4 5 5 5 4 4 4 4 4 5 4 5 5 5 5
3 4 4 3 2 3 4 7 6 5 5 5 5 6 6 6 7 7 7 6 6 6 5 5 5 5 4 3 3 3 3 3 3 3 3 4 5 6 4 4 4 4 4 4 5 5 5 5 5
4 4 4 5 3 4 6 9 9 7 6 6 6 6 6 7 7 6 7 6 6 6 5 5 4 5 4 3 2 2 3 3 3 3 4 5 5 6 5 4 5 5 4 4 5 5 5 5 4
3 4 6 6 5 6 8 10 11 8 7 7 7 6 6 7 7 6 6 6 6 6 4 4 4 4 4 3 2 3 3 3 3 3 4 5 5 5 5 4 4 5 5 5 6 5 6 4 3
4 5 6 5 4 5 8 11 10 8 7 6 6 7 7 7 7 7 6 6 6 6 5 5 5 4 4 3 3 3 3 4 3 3 3 4 4 4 4 4 4 4 4 5 6 5 4 3 3
5 6 6 6 6 5 7 8 5 4 5 5 5 6 6 7 8 8 7 6 7 7 5 5 5 5 4 4 2 1 2 3 3 3 3 3 3 3 4 5 4 4 4 5 5 5 6 5 4
5 4 5 6 5 4 3 6 6 4 4 5 5 5 6 7 8 8 7 6 6 6 5 5 5 5 4 3 3 3 4 4 5 4 3 3 3 3 4 4 4 4 4 5 5 5 5 6 6
3 3 5 5 5 5 5 6 6 4 6 6 6 6 6 7 7 8 8 7 7 6 5 4 4 4 4 4 3 4 4 4 3 3 3 3 3 3 3 3 4 4 4 5 5 5 5 5 6
3 3 3 4 4 5 5 6 7 4 6 7 6 6 7 6 7 7 7 6 6 5 5 4 4 4 4 4 4 4 5 5 3 3 3 2 2 2 3 3 3 4 4 4 5 5 5 5 5
3 2 2 2 3 4 3 6 7 4 5 7 8 7 7 6 6 7 7 7 6 6 5 4 4 5 4 4 4 5 5 5 4 3 3 3 2 2 2 3 4 4 4 4 5 5 5 6 6
3 3 2 3 4 4 4 7 5 3 5 6 7 7 8 7 7 7 7 7 6 6 6 4 4 5 5 4 4 5 4 3 3 3 3 3 3 3 3 3 3 3 3 3 4 4 4 5 5
3 3 1 1 3 5 5 6 6 4 5 6 7 7 8 7 7 8 7 7 6 6 6 5 4 5 5 4 4 4 4 3 3 3 2 2 3 3 3 3 3 2 2 3 4 3 4 4 4
1 3 3 3 3 5 6 6 4 4 6 7 8 8 9 9 7 7 7 7 6 6 5 5 4 4 4 4 3 4 3 2 2 2 2 3 4 4 3 3 2 2 2 2 3 3 3 3 3
4 4 3 3 3 4 5 4 1 3 4 7 8 9 9 9 8 7 7 7 6 5 4 4 3 3 3 3 3 3 2 2 2 2 3 3 3 3 3 3 2 2 2 2 2 3 3 3 3
4 5 6 4 4 4 5 6 1 3 5 7 9 10 10 9 8 7 6 6 5 5 4 4 3 3 3 2 2 2 1 2 2 2 3 2 2 2 2 2 1 1 2 2 2 2 2 3 3
Wind_Direction
318 304 257 213 207 219 228 218 217 207 210 219 228 230 226 225 234 106 65 62 67 129 136 138 110 109 130 128 133 134 133 138 139 146 146 146 143 140 137 132 130 128 123 119 115 112 110 108 103
317 281 213 210 224 224 224 216 212 214 210 212 210 219 221 224 285 49 38 18 71 136 142 141 117 109 117 127 126 133 137 141 141 140 147 150 148 144 140 137 134 131 127 122 117 113 111 111 107
303 262 210 204 225 231 223 205 213 216 211 215 208 221 238 231 194 308 5 345 145 140 146 134 123 118 122 129 132 127 135 142 146 146 143 151 153 149 144 141 138 134 129 125 120 118 118 115 111
220 188 207 222 226 232 237 208 194 199 202 218 219 195 193 136 342 356 17 39 135 137 144 138 137 135 130 129 138 130 127 138 146 153 153 149 152 156 150 146 142 138 134 131 127 125 126 122 121
215 208 209 224 232 230 232 241 224 215 210 213 220 226 205 135 37 18 9 81 129 133 134 146 156 157 143 140 146 137 133 135 142 150 157 156 150 156 157 150 147 145 142 139 135 136 134 132 129
185 206 223 228 227 226 223 232 230 232 229 235 238 237 232 128 34 353 340 329 143 136 133 138 144 171 159 142 158 148 145 145 145 152 158 161 159 153 162 159 153 150 149 147 144 144 143 139 134
198 199 230 235 231 229 224 223 230 235 237 242 264 244 234 214 345 327 317 293 2 59 108 127 159 169 171 164 166 166 159 155 154 154 159 164 166 160 159 166 160 156 156 155 152 150 149 146 141
221 196 223 229 231 233 227 216 238 249 253 277 261 247 247 305 324 317 312 306 346 15 30 18 255 184 183 183 178 176 168 164 161 156 157 162 166 167 161 165 167 164 163 161 159 157 155 150 146
182 204 227 230 229 225 201 212 242 279 254 252 258 277 297 301 295 297 317 346 348 344 343 350 321 250 208 198 189 185 180 172 170 163 155 164 175 176 173 166 167 173 170 166 165 161 156 154 153
190 209 230 238 248 231 223 262 273 247 255 259 260 291 314 299 276 269 289 321 330 331 328 326 316 313 267 235 208 199 195 191 192 185 178 188 187 178 179 158 165 175 173 171 169 162 164 178 169
159 214 222 254 273 257 249 270 272 253 259 260 274 296 314 307 283 275 272 291 298 307 321 315 316 327 314 240 227 215 202 203 207 197 192 197 190 174 174 170 172 178 179 182 174 174 184 194 184
170 214 240 268 298 280 265 262 270 266 267 290 295 298 300 290 291 284 281 291 300 306 305 309 321 310 308 285 211 212 210 211 221 218 205 204 206 193 189 197 198 195 192 194 195 196 196 201 197
210 232 268 279 287 286 279 269 269 271 278 285 286 283 286 288 286 294 284 288 297 302 299 299 303 298 286 282 267 227 215 219 225 226 218 211 216 206 198 202 209 211 200 195 202 206 204 207 205
146 220 280 287 277 272 272 279 266 268 275 266 270 277 281 289 290 292 293 293 303 300 297 297 292 283 280 262 272 253 233 233 228 226 227 221 221 224 211 209 213 212 208 200 203 209 211 213 213
178 264 283 288 272 262 272 281 257 267 258 262 271 276 284 290 293 291 293 297 296 298 295 293 288 282 274 266 260 263 243 233 240 241 230 224 226 228 227 215 219 216 210 203 201 203 210 214 214
205 229 242 277 282 263 249 266 277 274 266 271 276 282 282 285 288 287 292 298 298 297 297 293 287 280 268 259 261 269 259 237 239 247 237 229 228 230 234 217 218 217 210 203 202 200 206 211 214
205 225 240 265 311 276 246 263 283 284 273 277 277 278 277 283 288 287 291 299 298 295 295 295 291 280 273 268 259 269 271 249 244 248 241 231 230 230 235 230 220 213 212 203 202 204 207 210 214
212 221 240 256 306 294 267 269 282 285 275 274 276 275 275 280 283 289 293 299 299 298 293 293 298 283 277 273 267 271 275 261 255 255 248 235 231 232 232 234 220 210 217 212 206 208 208 211 208
237 237 255 268 293 293 276 279 284 283 277 279 278 276 276 278 286 294 297 302 305 299 294 294 294 296 282 274 269 270 275 265 257 260 261 242 230 231 232 235 224 214 215 217 214 211 200 196 192
233 241 258 271 278 286 288 284 282 274 265 268 271 275 281 289 295 295 297 301 301 298 294 288 283 283 273 267 269 264 272 274 264 268 268 255 238 235 233 230 223 220 217 215 209 201 202 191 191
238 241 258 274 299 282 287 279 259 268 264 267 271 278 282 284 289 291 290 289 291 292 289 283 281 280 278 269 266 259 283 277 272 272 268 266 248 236 236 236 224 220 216 217 212 201 200 196 202
244 244 256 263 275 281 286 278 259 265 278 280 279 284 285 285 285 287 288 286 284 288 286 283 278 280 283 275 256 242 258 264 267 262 264 275 253 234 230 239 233 225 222 220 216 212 212 201 201
237 260 252 249 250 271 251 253 266 264 269 278 284 292 292 292 287 285 286 285 283 292 286 279 276 274 276 277 266 251 257 265 264 264 261 278 263 236 230 235 236 231 227 224 216 213 209 208 210
232 236 221 216 230 251 241 242 265 247 272 287 293 301 301 300 297 294 294 291 287 292 289 281 274 274 273 270 267 257 260 262 249 256 258 269 277 255 242 235 230 232 230 226 218 216 211 211 214
214 222 244 233 233 246 222 246 256 263 284 291 295 300 306 305 301 301 299 294 292 288 290 280 276 274 271 266 267 263 267 257 241 246 250 255 270 265 256 253 236 230 231 230 218 213 212 211 211
201 225 231 258 267 281 250 247 257 271 286 293 298 300 309 308 311 306 301 293 289 283 284 279 276 273 269 265 268 270 270 258 248 253 260 258 261 266 261 246 244 243 233 230 221 212 210 209 213
189 197 251 244 270 271 259 265 270 262 293 307 311 313 315 310 305 305 302 293 284 277 276 268 263 266 264 263 267 267 265 261 266 267 263 261 267 268 261 242 240 242 241 237 226 213 207 204 210
229 166 181 205 253 270 269 264 266 272 302 313 315 317 319 315 306 303 301 294 282 273 272 265 255 261 262 262 263 265 261 260 261 260 257 263 267 265 247 243 242 243 243 235 233 209 201 199 201
170 180 196 204 253 262 281 276 265 267 300 307 309 314 318 318 317 305 300 295 290 285 282 269 256 262 264 262 263 265 270 262 266 264 266 270 267 251 242 242 245 241 240 236 222 205 191 194 199
215 211 200 220 231 236 263 276 83 283 303 305 312 315 318 321 319 315 308 303 299 292 287 270 263 266 267 264 260 263 267 256 263 279 281 283 281 261 247 239 242 236 221 223 217 197 186 185 194
Height
1510 1512 1514 1516 1516 1511 1505 1503 1504 1507 1509 1512 1513 1512 1510 1510 1512 1517 1517 1515 1515 1516 1517 1518 1519 1520 1520 1521 1522 1523 1523 1523 1524 1525 1525 1525 1526 1526 1526 1527 1527 1527 1527 1527 1527 1527 1527 1527 1527
1510 1512 1515 1515 1509 1505 1502 1502 1505 1507 1511 1513 1513 1513 1512 1513 1515 1515 1514 1514 1515 1516 1517 1518 1518 1519 1520 1521 1521 1522 1522 1523 1523 1524 1525 1525 1525 1526 1526 1526 1526 1527 1527 1527 1527 1527 1527 1527 1527
1509 1511 1514 1510 1505 1498 1498 1502 1505 1510 1512 1513 1513 1513 1513 1514 1514 1514 1514 1514 1515 1516 1517 1517 1518 1519 1519 1520 1521 1521 1522 1522 1523 1523 1524 1524 1525 1525 1526 1526 1526 1526 1526 1527 1527 1527 1527 1527 1526
1510 1513 1513 1508 1502 1501 1502 1505 1509 1510 1512 1513 1512 1512 1513 1514 1514 1514 1513 1514 1514 1515 1516 1516 1517 1518 1519 1519 1520 1520 1521 1521 1522 1522 1523 1524 1524 1525 1525 1525 1525 1525 1526 1526 1526 1526 1526 1526 1526
1510 1511 1508 1505 1502 1504 1507 1509 1511 1509 1510 1512 1512 1511 1512 1513 1512 1512 1513 1513 1514 1514 1515 1516 1516 1517 1518 1518 1518 1519 1520 1520 1520 1521 1522 1523 1523 1523 1524 1524 1524 1525 1525 1525 1525 1525 1525 1525 1525
1510 1509 1504 1500 1501 1505 1508 1511 1512 1510 1510 1512 1512 1511 1511 1512 1511 1512 1512 1513 1513 1514 1514 1515 1515 1516 1517 1517 1517 1517 1518 1518 1519 1520 1520 1521 1522 1522 1523 1523 1523 1523 1524 1524 1524 1524 1525 1525 1524
1509 1506 1502 1500 1502 1504 1508 1511 1511 1510 1510 1512 1513 1511 1511 1512 1511 1511 1511 1512 1512 1513 1513 1514 1514 1515 1515 1515 1516 1516 1516 1517 1517 1518 1519 1519 1520 1521 1521 1521 1522 1522 1523 1523 1523 1523 1523 1523 1523
1508 1507 1504 1503 1502 1504 1509 1511 1511 1511 1511 1513 1513 1511 1510 1511 1510 1510 1511 1511 1512 1512 1512 1512 1513 1513 1513 1513 1514 1514 1515 1515 1516 1516 1517 1518 1518 1519 1519 1520 1520 1520 1521 1521 1522 1522 1522 1522 1522
1508 1508 1503 1503 1504 1506 1511 1511 1512 1512 1512 1512 1512 1512 1511 1510 1509 1510 1510 1510 1510 1510 1511 1511 1511 1511 1511 1511 1512 1512 1513 1514 1514 1514 1515 1516 1516 1517 1517 1517 1518 1519 1519 1520 1520 1520 1520 1520 1521
1509 1505 1504 1508 1509 1509 1511 1511 1512 1511 1510 1510 1510 1510 1509 1508 1508 1508 1508 1508 1508 1508 1509 1509 1509 1509 1509 1509 1510 1509 1510 1511 1512 1512 1513 1514 1514 1515 1515 1515 1516 1517 1518 1518 1518 1518 1519 1519 1519
1509 1507 1509 1511 1512 1512 1511 1512 1512 1510 1508 1509 1509 1509 1508 1508 1508 1507 1507 1507 1507 1507 1506 1506 1506 1507 1507 1507 1508 1507 1507 1509 1510 1510 1511 1511 1512 1513 1513 1514 1514 1515 1515 1516 1517 1517 1517 1517 1517
1510 1511 1511 1512 1512 1512 1512 1511 1511 1510 1510 1509 1509 1508 1507 1507 1506 1506 1506 1505 1505 1505 1504 1504 1504 1504 1504 1505 1505 1506 1506 1507 1508 1508 1508 1509 1510 1510 1511 1511 1512 1512 1513 1513 1514 1515 1515 1515 1515
1510 1511 1512 1512 1512 1512 1512 1511 1510 1509 1509 1508 1507 1506 1505 1505 1505 1505 1504 1504 1503 1503 1502 1502 1501 1501 1501 1502 1502 1503 1504 1504 1505 1505 1506 1507 1507 1507 1507 1508 1509 1509 1510 1511 1512 1512 1512 1513 1513
1511 1511 1511 1511 1511 1511 1510 1509 1509 1506 1507 1506 1505 1504 1504 1503 1503 1502 1502 1501 1500 1500 1500 1500 1499 1499 1498 1498 1499 1500 1501 1502 1502 1503 1503 1504 1504 1504 1505 1505 1506 1506 1507 1507 1508 1509 1510 1510 1510
1512 1511 1509 1509 1509 1509 1509 1504 1505 1505 1505 1504 1503 1502 1502 1501 1500 1499 1499 1498 1498 1498 1497 1497 1497 1496 1496 1496 1496 1497 1498 1498 1499 1499 1500 1501 1501 1501 1502 1502 1502 1503 1504 1504 1505 1506 1506 1507 1507
1510 1508 1505 1507 1508 1508 1509 1500 1502 1503 1503 1502 1501 1500 1499 1498 1498 1497 1496 1496 1495 1495 1494 1494 1494 1493 1494 1494 1494 1494 1494 1495 1495 1496 1496 1497 1497 1498 1498 1498 1499 1499 1500 1500 1501 1502 1503 1503 1503
1505 1503 1502 1505 1507 1506 1505 1500 1500 1501 1501 1500 1499 1498 1497 1495 1495 1494 1494 1493 1492 1492 1491 1491 1490 1490 1490 1490 1490 1491 1490 1491 1492 1492 1492 1493 1493 1494 1494 1495 1495 1495 1496 1496 1497 1498 1499 1499 1500
1501 1501 1502 1503 1505 1505 1502 1499 1498 1498 1498 1497 1496 1495 1494 1493 1492 1491 1491 1490 1489 1489 1488 1487 1487 1487 1487 1486 1487 1487 1487 1487 1488 1488 1488 1489 1489 1490 1491 1490 1491 1491 1492 1492 1493 1494 1494 1495 1496
1504 1504 1503 1504 1507 1506 1500 1497 1494 1495 1494 1493 1492 1492 1491 1491 1490 1489 1488 1487 1486 1486 1484 1483 1483 1483 1483 1482 1482 1483 1482 1483 1484 1484 1484 1485 1485 1486 1487 1486 1487 1487 1487 1488 1489 1489 1489 1491 1492
1507 1505 1503 1504 1507 1505 1499 1495 1492 1491 1491 1490 1490 1489 1488 1487 1486 1485 1484 1483 1482 1481 1480 1479 1479 1479 1479 1479 1479 1480 1479 1479 1480 1480 1480 1480 1480 1481 1482 1482 1482 1483 1483 1483 1484 1484 1485 1486 1488
1506 1504 1503 1504 1504 1503 1500 1488 1486 1487 1487 1487 1487 1486 1486 1484 1483 1482 1480 1479 1478 1477 1476 1475 1475 1475 1475 1476 1476 1476 1475 1475 1475 1475 1475 1475 1476 1476 1477 1478 1478 1478 1479 1478 1479 1480 1480 1481 1483
1504 1507 1507 1507 1504 1497 1500 1487 1479 1483 1483 1483 1483 1483 1482 1481 1480 1478 1476 1475 1474 1473 1473 1472 1472 1471 1471 1471 1471 1471 1471 1470 1470 1471 1471 1470 1471 1472 1472 1473 1473 1474 1474 1475 1475 1476 1476 1477 1478
1506 1508 1508 1506 1505 1503 1498 1496 1476 1480 1479 1478 1479 1479 1479 1478 1476 1474 1473 1471 1470 1469 1469 1468 1468 1468 1467 1467 1467 1468 1467 1467 1467 1467 1467 1467 1467 1468 1468 1468 1469 1469 1470 1470 1471 1471 1472 1473 1475
1509 1508 1506 1504 1502 1499 1494 1491 1473 1475 1476 1475 1476 1476 1476 1474 1473 1471 1470 1468 1467 1466 1465 1464 1464 1464 1463 1463 1463 1464 1463 1462 1462 1462 1463 1463 1463 1463 1463 1464 1464 1465 1465 1466 1466 1467 1468 1470 1471
1508 1503 1495 1491 1490 1484 1492 1489 1476 1474 1477 1476 1476 1474 1473 1471 1470 1468 1466 1464 1463 1462 1461 1460 1460 1460 1460 1459 1460 1460 1459 1459 1459 1459 1459 1459 1459 1459 1459 1459 1460 1461 1461 1461 1462 1463 1464 1466 1467
1506 1504 1497 1489 1480 1476 1488 1482 1471 1475 1477 1476 1475 1473 1470 1468 1466 1464 1462 1461 1459 1458 1457 1457 1456 1456 1456 1456 1456 1456 1455 1456 1456 1456 1455 1455 1455 1455 1456 1456 1456 1456 1457 1457 1459 1459 1461 1462 1463
1505 1504 1506 1503 1502 1494 1476 1474 1472 1474 1474 1473 1472 1470 1468 1465 1463 1461 1459 1457 1456 1455 1453 1453 1453 1452 1452 1452 1452 1452 1452 1453 1452 1453 1453 1452 1452 1452 1452 1452 1452 1453 1453 1454 1455 1456 1457 1458 1459
1507 1506 1506 1502 1493 1479 1468 1468 1465 1468 1469 1470 1470 1468 1465 1462 1460 1458 1456 1454 1452 1451 1450 1450 1450 1449 1449 1449 1449 1450 1450 1449 1450 1450 1450 1449 1449 1449 1448 1448 1449 1449 1450 1450 1451 1452 1453 1454 1455
1508 1508 1505 1501 1497 1485 1472 1463 1466 1468 1470 1470 1468 1466 1463 1460 1457 1455 1453 1451 1449 1448 1448 1447 1447 1446 1446 1446 1447 1447 1446 1446 1447 1447 1447 1446 1446 1445 1445 1445 1445 1446 1447 1447 1448 1449 1450 1450 1452
1506 1504 1503 1498 1497 1496 1484 1470 1468 1470 1470 1469 1467 1464 1461 1458 1455 1452 1449 1448 1446 1446 1445 1445 1444 1444 1444 1443 1443 1443 1444 1444 1444 1444 1444 1443 1442 1442 1442 1442 1442 1443 1444 1445 1445 1446 1446 1447 1448